Flag for Jordan Weather past 2 weeks in Madaba, Jordan

Now
84 °F

Clear.


Feels Like: 83 °F
Forecast: 66 / 87 °F
Wind: 16 mph from Northwest

Location: Queen Alia Airport

Current Time: Jul 28, 2014 at 1:20:52 PM

Latest Report: Jul 28, 2014 at 1:00 PM


Visibility: 4 mi

Pressure: 29.98 "Hg

Humidity: 40%

Dew point: 57 °F

Location of MadabaLocation

Historic Weather in Madaba — Graph

°F

Madaba temperature yesterday

Maximum temperature yesterday: 88 °F (at 2:00 PM)
Minimum temperature yesterday: 61 °F (at 7:00 AM)
Average temperature yesterday: 77 °F

Past Weeks' High & Low Weather Summary

 TemperatureHumidityPressure
High91 °F (Jul 23, 3:00 PM)94% (Jul 17, 6:00 AM)30.01 "Hg (Jul 17, 6:00 AM)
Low57 °F (Jul 28, 6:00 AM)22% (Jul 24, 1:00 PM)29.80 "Hg (Jul 21, 4:00 AM)
Average75 °F56%29.88 "Hg
* Reported Jul 13 12:00 Noon — Jul 28 12:00 Noon, Madaba, Weather by CustomWeather, © 2014

Note: Actual official high and low records may vary slightly from our data, if they occured in-between our weather recording intervals... More about our weather records

Advertising

Madaba weather history for previous 24 hours

 ConditionsComfort  
Time TempWeatherWind HumidityBarometerVisibility
12:00 PM
Jul 28
84 °FClear.12 mph40%29.98 "Hg4 mi
11:00 AM81 °FClear.12 mph45%29.98 "Hg4 mi
10:00 AM77 °FClear.12 mph51%30.01 "Hg4 mi
9:00 AM77 °FClear.9 mph51%30.01 "Hg4 mi
8:00 AM68 °FClear.No wind64%29.98 "Hg4 mi
7:00 AM61 °FClear.No wind77%29.98 "Hg4 mi
6:00 AM57 °FClear.No wind88%29.98 "Hg4 mi
5:00 AM59 °FClear.No wind82%29.95 "Hg5 mi
3:00 AM63 °FClear.5 mph77%29.95 "Hg10 mi
2:00 AM64 °FClear.2 mph78%29.98 "Hg10 mi
1:00 AM66 °FClear.2 mph78%29.98 "Hg10 mi
12:00 AM66 °FClear.3 mph78%29.98 "Hg10 mi
11:00 PM
Jul 27
70 °FClear.3 mph69%29.98 "Hg10 mi
10:00 PM73 °FClear.7 mph61%29.98 "Hg10 mi
9:00 PM77 °FClear.7 mph51%29.98 "Hg10 mi
8:00 PM81 °FSunny.9 mph45%29.98 "Hg10 mi
7:00 PM84 °FSunny.9 mph31%29.95 "Hg10 mi
6:00 PM86 °FClear.14 mph29%29.95 "Hg5 mi
4:00 PM88 °FClear.14 mph27%29.95 "Hg5 mi
3:00 PM88 °FClear.18 mph27%29.95 "Hg5 mi
2:00 PM88 °FClear.16 mph24%29.98 "Hg4 mi
1:00 PM84 °FClear.18 mph23%29.98 "Hg4 mi
Weather by CustomWeather, © 2014

See weather overviewHow to use our weather pages